Atlantic City, NJ

12:36 AM EDT on August 26, 2019 (GMT -0400)
Atlantic City International

Weather History for KACY - July, 2019

Change the Weather History Date:

Sunday, July 21, 2019

  Actual Average Record
Temperature  
Mean Temperature 91 °F 76 °F  
Max Temperature 100 °F 86 °F 100 °F (2019)
Min Temperature 82 °F 67 °F 51 °F (1966)
Degree Days  
Heating Degree Days 0 0  
Month to date heating degree days 0 0  
Since 1 June heating degree days 5 27  
Since 1 July heating degree days 0 0  
Cooling Degree Days 26 12  
Month to date cooling degree days 326 235  
Year to date cooling degree days 685 502  
Since 1 June cooling degree days 585 438  
Growing Degree Days 41 (Base 50)    
Moisture  
Dew Point 75 °F    
Average Humidity 64    
Maximum Humidity 88    
Minimum Humidity 39    
Precipitation  
Precipitation 0.00 in 0.12 in 4.60 in (1969)
Month to date precipitation 4.08 2.47  
Year to date precipitation 27.17 22.86  
Snow  
Snow 0.00 in 0.00 in 0.00 in ()
Month to date snowfall 0.0 0.0  
Since 1 June snowfall 0.0 0.0  
Since 1 July snowfall 0.0 0.0  
Snow Depth 0.00 in    
Sea Level Pressure  
Sea Level Pressure 29.83 in    
Wind  
Wind Speed 9 mph (WSW)    
Max Wind Speed 17 mph    
Max Gust Speed 25 mph    
Visibility 9 miles    
Events      
T = Trace of Precipitation, MM = Missing Value Source: NWS Daily Summary

Daily Weather History Graph

Daily Weather History Graph

Search for Another Location

Airport or City:

Astronomy

Jul. 21, 2019 Rise Set
Actual Time 5:48 AM EDT 8:20 PM EDT
Civil Twilight 5:17 AM EDT 8:51 PM EDT
Nautical Twilight 4:38 AM EDT 9:30 PM EDT
Astronomical Twilight 3:55 AM EDT 10:13 PM EDT
Moon 11:15 PM EDT (7/21) 10:05 AM EDT (7/21)
Length of Visible Light 15h 34m
Length of Day
14h 32m
Waning Gibbous, 80% of the Moon is Illuminated
Jul 21
Waning Gibbous
Jul 24
Last Quarter
Jul 31
New
Aug 7
First Quarter
Aug 15
Full

Hourly Weather History & Observations

Time (EDT) Temp. Heat Index Dew Point Humidity Pressure Visibility Wind Dir Wind Speed Gust Speed Precip Events Conditions
12:54 AM 86.0 °F 96.9 °F 77.0 °F 74% 29.83 in 9.0 mi SW 9.2 mph - N/A   Clear
1:54 AM 84.9 °F 95.3 °F 77.0 °F 77% 29.83 in 9.0 mi WSW 6.9 mph - N/A   Clear
2:54 AM 84.0 °F 94.8 °F 78.1 °F 82% 29.83 in 8.0 mi WSW 6.9 mph - N/A   Clear
3:54 AM 82.9 °F 92.8 °F 78.1 °F 85% 29.82 in 8.0 mi SW 6.9 mph - N/A   Clear
4:54 AM 82.9 °F 92.8 °F 78.1 °F 85% 29.82 in 7.0 mi West 4.6 mph - N/A   Clear
5:54 AM 82.0 °F 90.2 °F 77.0 °F 85% 29.81 in 6.0 mi SSW 4.6 mph - N/A   Haze
6:54 AM 82.9 °F 91.8 °F 77.0 °F 82% 29.83 in 7.0 mi WSW 4.6 mph - N/A   Clear
7:54 AM 84.0 °F 94.8 °F 78.1 °F 82% 29.86 in 7.0 mi West 6.9 mph - N/A   Clear
8:54 AM 89.1 °F 101.4 °F 77.0 °F 67% 29.87 in 10.0 mi WNW 10.4 mph - N/A   Clear
9:54 AM 91.9 °F 103.9 °F 75.9 °F 59% 29.86 in 10.0 mi NW 10.4 mph - N/A   Scattered Clouds
10:54 AM 95.0 °F 106.7 °F 75.0 °F 52% 29.86 in 10.0 mi WNW 11.5 mph - N/A   Clear
11:54 AM 97.0 °F 107.7 °F 73.9 °F 47% 29.85 in 10.0 mi NW 11.5 mph - N/A   Clear
12:54 PM 98.1 °F 109.5 °F 73.9 °F 46% 29.83 in 10.0 mi WNW 13.8 mph - N/A   Partly Cloudy
1:54 PM 100.0 °F 111.0 °F 73.0 °F 42% 29.83 in 10.0 mi West 9.2 mph 21.9 mph N/A   Clear
2:54 PM 99.0 °F 107.0 °F 71.1 °F 40% 29.82 in 10.0 mi West 8.1 mph 18.4 mph N/A   Scattered Clouds
3:54 PM 99.0 °F 106.2 °F 70.0 °F 39% 29.81 in 10.0 mi WSW 11.5 mph - N/A   Clear
4:54 PM 98.1 °F 107.2 °F 72.0 °F 43% 29.80 in 10.0 mi WSW 11.5 mph 19.6 mph N/A   Partly Cloudy
5:54 PM 97.0 °F 107.0 °F 73.0 °F 46% 29.80 in 10.0 mi West 11.5 mph - N/A   Clear
6:54 PM 96.1 °F 105.6 °F 73.0 °F 47% 29.82 in 10.0 mi West 12.7 mph 18.4 mph N/A   Clear
7:54 PM 93.9 °F 104.0 °F 73.9 °F 52% 29.83 in 10.0 mi SW 6.9 mph - N/A   Clear
8:54 PM 89.1 °F 99.1 °F 75.0 °F 63% 29.83 in 10.0 mi SSW 6.9 mph - N/A   Clear
9:54 PM 89.1 °F 99.1 °F 75.0 °F 63% 29.84 in 10.0 mi SW 5.8 mph - N/A   Clear
10:54 PM 89.1 °F 98.0 °F 73.9 °F 61% 29.84 in 10.0 mi WSW 5.8 mph - N/A   Clear
11:54 PM 88.0 °F 96.5 °F 73.9 °F 63% 29.83 in 10.0 mi West 10.4 mph - N/A   Clear